STARLINK-32349, 61700

Orbit data source: Space-Track

STARLINK-32349, 61700 is a payload satellite owned by SpaceX/Seattle (US) in LEO that was launched on Wed, 30 Oct 2024 UTC via an FALCON 9 launch vehicle from the Air Force Western Test Range (AFWTR). Payload-class satellites include a variety of spacecraft equipped with specific instruments for various scientific and technological missions. These include communications satellites like Starlink; space stations such as the ISS; scientific satellites like the Hubble; Earth observation satellites from companies like Planet Labs, Umbra, and HawkEye 360; GPS; miniature CubeSats for education and research; and military/defense satellites.

Loading next visibility...
Identifier
61700, 2024-195P
Orbit
LEO
Country
Flag of USUS
Related business
Manufacturer
SpaceX/Seattle
Mission
Operational Commercial Communications
Bus & Motor
STARLINK V2M, Unknown motor
Mass
730 kg wet, ~700 kg dry
Launch date (UTC)
2024-10-30 (2 years ago)
Launch vehicle
FALCON 9
Launch site
Air Force Western Test Range (AFWTR)
Object type
Payload
Rocket body
Debris
Shape & HBR
Box + 2 Pan, 17.7 m
Radar Cross Section
33.884 m², Large (>1 m²)

Expand to show TLE details & history
Last TLE update: 1 day ago

TLE from 1 day ago
0 STARLINK-32349
1 61700U 24195P   26170.86282222  .00001880  00000-0  75609-4 0  9991
2 61700  53.1608  40.8412 0001512  51.2223 308.8913 15.30191712 92825
Epoch: 2026-06-19T20:42Z
TLE epoch observation values (Epoch: 2026-06-19T20:42:27.839Z)
Latitude
-0.00001°
Longitude
-177.86051°
Altitude
475.489 km
Speed
7.63 km/s
True Right ascension
02h 43m 21s
True Declination
0° 00' 00"
Sunlit
Object was in daylight at epoch
Visualization orbit readout
Latitude
Unknown
Longitude
Unknown
Altitude
Unknown
Speed
Unknown
Apparent Right ascension
Unknown
Apparent Declination
Unknown
Sunlit
N/A
Visualization observer readout
Local Sidereal Time
07:15:01
Azimuth
Unknown
Elevation
Unknown
Doppler factor
Unknown
Orbital elements
Apogee altitude
476.532 km
Perigee altitude
474.46 km
Semi-major axis
6,853.633 km
Eccentricity
0.00015
Inclination
53.1608°
RAAN
40.8412°
Arg. of periapsis
51.2223°
True anomaly
308.87781°
Mean anomaly
308.8913°
Eccentric anomaly
308.88456°
Mean motion
3.82527 °/min
Orbital period
94.11 mins
BSTAR
0.000075609
Loading maneuver chart data...
Computing Atmospheric mass density...
Loading historical data...
Loading historical data...
Loading historical data...
Loading historical data...
Loading historical data...
Loading historical data...
Loading historical data...

Documentation

Showing up to 5 results
|